[[{"header":{"parameterUnit":"m.s-1","parameterCategory":2,"la1":30.2991,"la2":30.254,"lo1":-89.0895,"lo2":-89.0444,"dy":0.0017,"dx":0.0017,"nx":28,"ny":28,"refTime":"2023-08-16T21:00:00:Z","depth":"0","parameterNumber":2,"parameterNumberName":"U-component_of_CURRENTS"},"data":[0,0,0,0,0,0,0,0,0,0,0,0,0,0,0,0,0,0,0,0,0,0,0,0,0,0,0,0,0,0,0,0,0,0,0,0,0,0,0,0,0,0,0,0,0,0,0,0,0,0,0,0,0,0,0,0,0,0,0.3413,0.3413,0,0.3411,0.3411,0.3411,0.3376,0.3375,0.3374,0.3373,0.3465,0.3468,0.3472,0,0,0,0,0,0,0,0,0,0,0,0,0,0.3488,0.3486,0.3413,0.3413,0.3413,0.3411,0.3411,0.3411,0.3376,0.3375,0.3374,0.3373,0.3464,0.3468,0.3472,0,0,0,0,0,0,0,0,0,0,0,0,0,0.3467,0.3485,0.3413,0.3395,0.3394,0.3411,0.3411,0.3411,0.3376,0.3375,0.3374,0.3372,0.3463,0.3468,0.3472,0.353,0,0,0.3487,0.349,0,0,0,0,0,0,0,0,0.3468,0.3465,0.3398,0.3397,0.3395,0.3392,0.3471,0.3455,0.3377,0.3383,0.3373,0.3372,0.3451,0.3456,0.3458,0.3534,0.3538,0.3488,0.3491,0.3493,0.3494,0,0,0,0,0,0,0,0.347,0.3465,0.3412,0.3398,0.3396,0.3422,0.3417,0.3468,0.3426,0.3382,0.338,0.338,0.345,0.3453,0.346,0.3539,0.3488,0.3492,0.3495,0.3497,0.3803,0.3808,0,0,0,0,0,0,0.3466,0.3466,0.3412,0.3412,0.3429,0.3421,0.3416,0.3395,0.3424,0.3426,0.3381,0.3378,0.3445,0.3454,0.3463,0.3608,0.3493,0.3498,0.35,0.3798,0.3805,0.381,0,0,0,0,0,0,0.3467,0.346,0.3413,0.3441,0.3436,0.3421,0.3398,0.3395,0.3402,0.3421,0.3425,0.3391,0.3444,0.3456,0.3522,0.3609,0.35,0.3504,0.3792,0.38,0.3807,0.3851,0,0,0,0,0,0,0.3469,0.346,0.3464,0.3439,0.3434,0.3448,0.3399,0.3396,0.3404,0.3401,0.3433,0.3438,0.3444,0.3515,0.3527,0.3613,0.3508,0.3786,0.3796,0.3805,0.3843,0.3859,0.3873,0,0,0,0,0,0.3471,0.3511,0.3464,0.3459,0.3432,0.345,0.3451,0.3436,0.3406,0.3432,0.3443,0.3438,0.3588,0.3521,0.3535,0.3625,0.3781,0.3793,0.3804,0.3836,0.3856,0.3873,0,0,0,0,0,0,0.3607,0.351,0.3458,0.3479,0.3462,0.3444,0.3487,0.3447,0.3473,0.3478,0.3472,0.3482,0.3578,0.3608,0.3534,0.3753,0.3698,0.3713,0.3719,0.3738,0.3753,0.3839,0.3512,0,0,0,0,0,0.3617,0.3588,0.3525,0.3552,0.3545,0.3506,0.3515,0.3491,0.35,0.3508,0.3515,0.3567,0.3642,0.3685,0.3742,0.3847,0.3944,0.3932,0.3947,0.3959,0.4047,0.4238,0.4278,0.3849,0.3849,0.3848,0,0,0.3686,0.3629,0.3619,0.3573,0.3564,0.3611,0.3512,0.354,0.3601,0.3521,0.3617,0.3605,0.3678,0.3789,0.3842,0.3821,0.4129,0.3974,0.3982,0.4067,0.4255,0.4296,0.4334,0.3857,0.3855,0.3854,0,0,0.3827,0.3749,0.3773,0.3758,0.3728,0.3709,0.3715,0.3681,0.369,0.3749,0.3726,0.377,0.3861,0.3929,0.3982,0.4133,0.4189,0.415,0.4308,0.4489,0.4526,0.456,0.4708,0.4755,0.4172,0.4172,0.4172,0,0.3918,0.3929,0.3804,0.3843,0.3877,0.3762,0.3853,0.3854,0.3847,0.3899,0.3808,0.3966,0.3959,0.4162,0.4186,0.4171,0.4273,0.4207,0.4508,0.4543,0.4577,0.4721,0.4772,0.4176,0.4175,0.4175,0.4175,0,0.4082,0.4092,0.4131,0.4117,0.4135,0.4198,0.4161,0.4184,0.415,0.4154,0.428,0.4245,0.4369,0.4342,0.4298,0.4546,0.4537,0.4479,0.4447,0.4623,0.4763,0.4815,0.4181,0.4179,0.4178,0.4178,0,0,0.4286,0.4247,0.4262,0.4323,0.4284,0.4351,0.4428,0.451,0.463,0.4573,0.4756,0.4769,0.4719,0.4781,0.4718,0.4822,0.506,0.4752,0.476,0.4879,0.5471,0.5251,0.5286,0.5046,0.5056,0.5064,0.5459,0,0.4469,0.4616,0.4523,0.4714,0.4813,0.4722,0.4838,0.4885,0.4886,0.5017,0.4985,0.5109,0.4906,0.4947,0.503,0.5053,0.5209,0.496,0.5308,0.532,0.5085,0.5344,0.5024,0.5333,0.5511,0.5519,0.5526,0,0.468,0.4745,0.4935,0.5053,0.5091,0.5164,0.5337,0.5408,0.5501,0.551,0.5573,0.5536,0.5663,0.5453,0.5669,0.5519,0.5553,0.5542,0.5557,0.5396,0.5201,0.5199,0.5421,0.5218,0.5606,0.56,0.5594,0,0.4959,0.5066,0.5239,0.527,0.5354,0.5434,0.5487,0.5569,0.5613,0.5811,0.5843,0.6019,0.6026,0.6159,0.602,0.5925,0.6235,0.6118,0.5988,0.5971,0.5799,0.5748,0.5857,0.6395,0.6394,0.6393,0.6392,0,0.5211,0.5362,0.5376,0.5475,0.5665,0.5681,0.5852,0.5913,0.5988,0.6044,0.6097,0.6139,0.6189,0.6266,0.6258,0.6256,0.6455,0.6123,0.6102,0.5795,0.5742,0.5631,0.552,0.6407,0.6404,0.6401,0.6399,0,0.5447,0.5476,0.5646,0.5748,0.5769,0.5895,0.5897,0.5992,0.6092,0.6154,0.6206,0.6271,0.6382,0.6413,0.6588,0.647,0.6366,0.6521,0.6116,0.6039,0.5685,0.5587,0.5642,0.5504,0.655,0.6548,0.6546,0,0.5572,0.5685,0.5774,0.5778,0.5777,0.5894,0.5912,0.6005,0.6018,0.6158,0.6169,0.6318,0.6333,0.6515,0.644,0.6545,0.6298,0.6246,0.6006,0.5718,0.56,0.5407,0.5273,0.5814,0.5806,0.58,0.5794,0,0.5714,0.572,0.5785,0.5799,0.5803,0.5842,0.5867,0.5888,0.5968,0.602,0.6083,0.616,0.6269,0.6145,0.6193,0.6195,0.5902,0.6111,0.597,0.5201,0.486,0.469,0.5481,0.5737,0.5743,0.5747,0.575,0.5752,0.5708,0.573,0.573,0.5737,0.574,0.5717,0.5686,0.5693,0.5704,0.5672,0.5871,0.5849,0.5785,0.5804,0.5773,0.5449,0.5543,0.5227,0.5197,0.508,0.4738,0.537,0.5461,0.5465,0.5469,0.5472,0.5474,0,0.5602,0.5613,0.5634,0.559,0.5541,0.5592,0.5566,0.5471,0.538,0.5423,0.5437,0.5254,0.5097,0.5034,0.4748,0.4538,0.4411,0.4406,0.4098,0.4066,0.4788,0.4533,0.4232,0.4232,0.4232,0.4233,0.4233,0.4233,0.5534,0.5479,0.5494,0.5357,0.5334,0.5196,0.5151,0.5028,0.4999,0.4749,0.4569,0.4539,0.4446,0.4232,0.3914,0.3825,0.357,0.3384,0.3489,0.3968,0.4042,0.4112,0.3849,0.341,0.3409,0.2586,0.2579,0.2573]},{"header":{"parameterUnit":"m.s-1","parameterCategory":2,"la1":30.2991,"la2":30.254,"lo1":-89.0895,"lo2":-89.0444,"dy":0.0017,"dx":0.0017,"nx":28,"ny":28,"refTime":"2023-08-16T21:00:00:Z","depth":"0","parameterNumber":3,"parameterNumberName":"V-component_of_CURRENTS"},"data":[0,0,0,0,0,0,0,0,0,0,0,0,0,0,0,0,0,0,0,0,0,0,0,0,0,0,0,0,0,0,0,0,0,0,0,0,0,0,0,0,0,0,0,0,0,0,0,0,0,0,0,0,0,0,0,0,0,0,0.0186,0.0185,0,0.0095,0.0094,0.0092,0.0027,0.0027,0.0026,0.0026,-0.0055,-0.0057,-0.0058,0,0,0,0,0,0,0,0,0,0,0,0,0,0.029,0.0289,0.0186,0.0185,0.0184,0.0095,0.0094,0.0092,0.0027,0.0027,0.0026,0.0025,-0.0054,-0.0056,-0.0058,0,0,0,0,0,0,0,0,0,0,0,0,0,0.0226,0.0288,0.0186,0.0141,0.0136,0.0095,0.0093,0.0092,0.0027,0.0027,0.0026,0.0025,-0.0054,-0.0056,-0.0059,-0.0059,0,0,-0.0066,-0.0068,0,0,0,0,0,0,0,0,0.023,0.0222,0.0149,0.0144,0.0139,0.0072,0.01,0.0042,0.0028,0.0068,0.0026,0.0025,-0.0011,-0.0017,-0.0033,-0.0063,-0.0067,-0.0067,-0.0068,-0.0069,-0.007,0,0,0,0,0,0,0,0.0235,0.0226,0.015,0.0148,0.0141,0.012,0.0111,0.0089,0.0034,0.0065,0.006,0.005,-0.0014,-0.0031,-0.0035,-0.0068,-0.0067,-0.0069,-0.007,-0.0071,-0.0086,-0.0085,0,0,0,0,0,0,0.0248,0.023,0.0152,0.0147,0.0184,0.0119,0.0108,0.0094,0.0034,0.0024,0.0051,0.0048,-0.0026,-0.0032,-0.0038,-0.0012,-0.0069,-0.0072,-0.0073,-0.0087,-0.0086,-0.0085,0,0,0,0,0,0,0.025,0.0242,0.0156,0.0187,0.0175,0.0118,0.0103,0.0092,0.0079,0.0023,0.0014,0.0049,-0.0027,-0.0035,-0.0052,-0.0016,-0.0073,-0.0075,-0.0088,-0.0087,-0.0085,0.0022,0,0,0,0,0,0,0.0254,0.0243,0.0242,0.0188,0.0173,0.0149,0.0103,0.0091,0.0074,0.0069,0.0018,0.0009,-0.0028,-0.0048,-0.0055,-0.0021,-0.0077,-0.009,-0.0088,-0.0086,0.0017,0.0027,0.0036,0,0,0,0,0,0.0258,0.0274,0.0242,0.0233,0.0172,0.015,0.0141,0.0098,0.0075,0.0081,0.004,0.0011,-0.0039,-0.005,-0.0058,-0.0023,-0.0091,-0.0088,-0.0086,0.0013,0.0025,0.0036,0,0,0,0,0,0,0.0335,0.0267,0.0232,0.0229,0.0194,0.0139,0.0145,0.0109,0.008,0.0076,0.0019,0.0009,0.0011,-0.0024,-0.0034,-0.0022,-0.0067,-0.0066,0.0011,0.0022,0.0032,0.0087,-0.0079,0,0,0,0,0,0.0346,0.033,0.0269,0.0269,0.0257,0.02,0.0186,0.0154,0.0118,0.0104,0.0065,0.0031,0.0015,0.0004,-0.0019,-0.0016,0.0012,0.0001,0.0011,0.0019,0.0059,0.0128,0.0149,-0.0076,-0.0076,-0.0076,0,0,0.0374,0.0338,0.0328,0.0283,0.0254,0.0259,0.0191,0.0181,0.0187,0.0102,0.0105,0.0064,0.0023,0.0028,0.0027,0.0003,0.0098,0.0023,0.003,0.0066,0.0134,0.0156,0.0176,-0.0075,-0.0075,-0.0075,0,0,0.0436,0.0394,0.0402,0.0384,0.0344,0.0312,0.0314,0.026,0.0238,0.0227,0.0175,0.0162,0.012,0.0108,0.0096,0.0146,0.0148,0.0127,0.022,0.0286,0.0306,0.0324,0.0398,0.0422,0.013,0.013,0.013,0,0.0469,0.0467,0.0407,0.0423,0.0421,0.0345,0.0371,0.0346,0.0292,0.0292,0.0246,0.0221,0.0172,0.0206,0.0212,0.0173,0.0212,0.0179,0.0303,0.0321,0.0338,0.0409,0.0435,0.0136,0.0135,0.0134,0.0134,0,0.0532,0.0538,0.0553,0.0537,0.0535,0.0544,0.0502,0.0494,0.0453,0.0426,0.0437,0.0374,0.037,0.034,0.0286,0.0374,0.0364,0.0311,0.0284,0.0368,0.0437,0.0461,0.0143,0.0141,0.014,0.0138,0,0,0.0574,0.0588,0.0591,0.0606,0.0592,0.0594,0.0622,0.0618,0.065,0.0599,0.0657,0.06,0.0569,0.0555,0.0491,0.0526,0.0655,0.0473,0.0474,0.0565,0.0826,0.0734,0.0751,0.0626,0.0631,0.0634,0.083,0,0.0631,0.0687,0.0678,0.0738,0.0763,0.0729,0.0764,0.076,0.0747,0.0786,0.0742,0.0768,0.0651,0.0659,0.068,0.0676,0.0723,0.0609,0.0716,0.072,0.0642,0.0777,0.0706,0.0867,0.0854,0.0858,0.0861,0,0.0688,0.0713,0.0785,0.0829,0.0838,0.0868,0.0913,0.0936,0.0975,0.0973,0.1002,0.0976,0.1033,0.091,0.0989,0.0926,0.0897,0.0875,0.0881,0.0782,0.0673,0.0777,0.0912,0.0652,0.0898,0.0895,0.0892,0,0.0737,0.0788,0.0846,0.0861,0.0904,0.0934,0.0954,0.0994,0.1031,0.1118,0.1175,0.1218,0.1267,0.1262,0.1203,0.1124,0.1295,0.1178,0.1073,0.1066,0.1023,0.1004,0.0938,0.1248,0.1248,0.1247,0.1246,0,0.0799,0.0847,0.0871,0.0905,0.0975,0.099,0.1076,0.1104,0.1182,0.1276,0.1282,0.1385,0.1358,0.1422,0.1339,0.1316,0.1416,0.1149,0.1129,0.1054,0.1036,0.0815,0.0694,0.1254,0.1253,0.1251,0.125,0,0.0863,0.0881,0.0945,0.0987,0.1006,0.1058,0.1133,0.1197,0.127,0.141,0.1458,0.1568,0.1681,0.1636,0.1668,0.1498,0.1346,0.1419,0.1335,0.1298,0.0887,0.0776,0.0789,0.0708,0.1357,0.1356,0.1356,0,0.0909,0.0949,0.0999,0.1031,0.1054,0.1121,0.1174,0.1238,0.1321,0.1522,0.1612,0.177,0.1924,0.1949,0.1733,0.1641,0.1395,0.1395,0.1196,0.0906,0.077,0.0695,0.062,0.1201,0.1199,0.1198,0.1196,0,0.0979,0.099,0.1027,0.109,0.1142,0.1223,0.1308,0.139,0.1507,0.1672,0.193,0.2094,0.2106,0.2033,0.1822,0.1664,0.1195,0.1351,0.1099,0.07,0.0579,0.0475,0.1028,0.1182,0.1184,0.1185,0.1186,0.1186,0.1012,0.104,0.107,0.1138,0.1208,0.1323,0.1425,0.1563,0.1764,0.2066,0.2172,0.2506,0.2211,0.1962,0.1705,0.1051,0.1125,0.0792,0.0711,0.0684,0.0507,0.1017,0.1089,0.109,0.109,0.1091,0.1091,0,0.1018,0.1049,0.1113,0.1194,0.129,0.1328,0.1513,0.1664,0.195,0.2304,0.2585,0.2651,0.2254,0.1789,0.0938,0.0482,0.0335,0.0223,0.0089,0.0065,0.0565,0.0444,0.032,0.032,0.0321,0.0321,0.0321,0.0321,0.1019,0.1057,0.1092,0.1237,0.1321,0.1498,0.1628,0.1898,0.2197,0.2665,0.2946,0.3132,0.2658,0.1131,0.0108,-0.0119,-0.0415,-0.0471,-0.0558,-0.0296,-0.0251,-0.0209,-0.0354,-0.0644,-0.0645,-0.1048,-0.1053,-0.1056]}],[{"header":{"parameterUnit":"m.s-1","parameterCategory":2,"la1":30.2991,"la2":30.254,"lo1":-89.0895,"lo2":-89.0444,"dy":0.0017,"dx":0.0017,"nx":28,"ny":28,"refTime":"2023-08-16T21:00:00:Z","depth":"2","parameterNumber":2,"parameterNumberName":"U-component_of_CURRENTS"},"data":[0,0,0,0,0,0,0,0,0,0,0,0,0,0,0,0,0,0,0,0,0,0,0,0,0,0,0,0,0,0,0,0,0,0,0,0,0,0,0,0,0,0,0,0,0,0,0,0,0,0,0,0,0,0,0,0,0,0,0.2594,0.2595,0,0.2636,0.2636,0.2636,0.2652,0.2653,0.2653,0.2653,0.2692,0.2693,0.2694,0,0,0,0,0,0,0,0,0,0,0,0,0,0.2523,0.2524,0.2594,0.2595,0.2596,0.2636,0.2636,0.2636,0.2652,0.2653,0.2653,0.2653,0.2692,0.2693,0.2694,0,0,0,0,0,0,0,0,0,0,0,0,0,0.2555,0.2525,0.2594,0.2611,0.2613,0.2636,0.2636,0.2636,0.2652,0.2653,0.2653,0.2653,0.2692,0.2693,0.2694,0.2696,0,0,0.2698,0.2699,0,0,0,0,0,0,0,0,0.2553,0.2557,0.2608,0.261,0.2613,0.2642,0.2626,0.2658,0.2652,0.2634,0.2653,0.2653,0.2678,0.268,0.2682,0.2698,0.27,0.2698,0.2699,0.27,0.27,0,0,0,0,0,0,0,0.2551,0.2556,0.2607,0.2609,0.2612,0.2615,0.262,0.2632,0.2651,0.2636,0.2638,0.2648,0.2678,0.2681,0.2683,0.27,0.2698,0.27,0.27,0.2701,0.2848,0.2851,0,0,0,0,0,0,0.2553,0.2554,0.2606,0.2609,0.2587,0.2617,0.2622,0.263,0.2651,0.2655,0.2647,0.2648,0.2679,0.2682,0.2685,0.2772,0.27,0.2701,0.2702,0.2845,0.2849,0.2852,0,0,0,0,0,0,0.2551,0.2557,0.2604,0.2585,0.2592,0.2618,0.2627,0.263,0.2647,0.2661,0.2664,0.2662,0.2679,0.2683,0.2736,0.2771,0.2702,0.2703,0.2842,0.2846,0.2851,0.2893,0,0,0,0,0,0,0.2549,0.2556,0.2575,0.2585,0.2593,0.2627,0.2627,0.2631,0.2653,0.2655,0.2674,0.2677,0.268,0.2734,0.2737,0.2771,0.2704,0.2838,0.2844,0.2849,0.2888,0.2899,0.2908,0,0,0,0,0,0.2546,0.2567,0.2576,0.2583,0.2614,0.2628,0.2633,0.265,0.2654,0.2664,0.2699,0.2677,0.2774,0.2737,0.274,0.2775,0.2835,0.2842,0.2849,0.2883,0.2897,0.2908,0,0,0,0,0,0,0.2544,0.2571,0.2581,0.2609,0.2624,0.2633,0.2651,0.2657,0.2689,0.2708,0.2707,0.2714,0.277,0.2779,0.2738,0.2843,0.2804,0.2812,0.283,0.2842,0.2852,0.2892,0.2705,0,0,0,0,0,0.2554,0.2585,0.2595,0.2625,0.2628,0.2641,0.2654,0.2671,0.2696,0.2709,0.2725,0.2763,0.2799,0.2825,0.285,0.2903,0.2947,0.2936,0.2946,0.2954,0.2994,0.3095,0.3118,0.2876,0.2876,0.2875,0,0,0.2569,0.2586,0.2607,0.2629,0.264,0.2665,0.2649,0.2681,0.2724,0.271,0.2775,0.2787,0.282,0.2883,0.291,0.2897,0.3046,0.2963,0.2969,0.3006,0.3105,0.3128,0.3149,0.288,0.288,0.2879,0,0,0.2609,0.2617,0.2656,0.2661,0.2691,0.2701,0.2711,0.2732,0.2761,0.2824,0.283,0.288,0.2926,0.2964,0.2988,0.3076,0.3086,0.3078,0.3169,0.3265,0.3286,0.3304,0.3379,0.3404,0.3094,0.3094,0.3094,0,0.2646,0.266,0.2668,0.2692,0.2708,0.2717,0.2751,0.2783,0.2829,0.2861,0.2862,0.2966,0.2976,0.3066,0.3107,0.3097,0.3153,0.3106,0.3277,0.3297,0.3315,0.3388,0.3415,0.3097,0.3096,0.3096,0.3096,0,0.268,0.2707,0.272,0.276,0.2787,0.2807,0.2848,0.2876,0.2912,0.2954,0.3047,0.3087,0.3154,0.3161,0.3167,0.3298,0.3294,0.3263,0.3238,0.3342,0.3411,0.3439,0.3101,0.31,0.3099,0.3098,0,0,0.2718,0.275,0.2754,0.2742,0.2816,0.2806,0.2906,0.2962,0.2986,0.3087,0.3157,0.3255,0.3283,0.3318,0.3327,0.3423,0.3582,0.3417,0.342,0.3478,0.3804,0.3617,0.3628,0.3584,0.3589,0.3593,0.3795,0,0.2743,0.277,0.2813,0.2829,0.2819,0.2867,0.2935,0.3003,0.3064,0.3127,0.324,0.3308,0.3343,0.3368,0.3487,0.3545,0.3661,0.3532,0.3709,0.3714,0.3524,0.3656,0.3335,0.3473,0.3821,0.3826,0.3829,0,0.2725,0.2745,0.2778,0.2788,0.2794,0.2833,0.2877,0.2956,0.3089,0.3156,0.33,0.3354,0.3539,0.3526,0.3784,0.3705,0.3789,0.3841,0.3849,0.3686,0.3579,0.3431,0.3509,0.3875,0.3871,0.3868,0.3865,0,0.261,0.2682,0.2692,0.2697,0.2756,0.2786,0.2849,0.2963,0.3068,0.3195,0.331,0.3463,0.3643,0.3747,0.3891,0.3854,0.4146,0.4085,0.4009,0.3996,0.3766,0.3721,0.4287,0.4287,0.4287,0.4286,0.4286,0,0.253,0.2505,0.2628,0.2585,0.2616,0.2711,0.2785,0.2843,0.3057,0.3187,0.3348,0.3489,0.3731,0.3904,0.3941,0.4075,0.4206,0.4071,0.4053,0.3767,0.3723,0.4098,0.4074,0.4294,0.4292,0.4291,0.4289,0,0.234,0.2416,0.2399,0.2494,0.2537,0.2557,0.2792,0.2862,0.3078,0.3272,0.335,0.3654,0.3845,0.4005,0.4201,0.4198,0.4244,0.4252,0.3887,0.3821,0.402,0.3996,0.4194,0.419,0.4186,0.4183,0.418,0,0.2237,0.2233,0.2315,0.2376,0.2422,0.2533,0.2635,0.2842,0.2957,0.332,0.3399,0.3711,0.3826,0.4072,0.4056,0.4088,0.422,0.3842,0.3694,0.4057,0.4021,0.4002,0.3984,0.3424,0.3415,0.3408,0.3402,0,0.2109,0.2152,0.2162,0.2274,0.2367,0.2478,0.2631,0.2719,0.2975,0.3143,0.3349,0.3473,0.3739,0.3652,0.3754,0.3704,0.3777,0.3694,0.4231,0.3455,0.3335,0.3296,0.3304,0.3339,0.3346,0.335,0.3354,0.3356,0.2051,0.207,0.2148,0.2212,0.2338,0.2425,0.2447,0.2578,0.2707,0.2878,0.3104,0.3215,0.3345,0.3306,0.3207,0.3173,0.3427,0.3304,0.3326,0.3355,0.3188,0.3063,0.2987,0.2991,0.2994,0.2998,0.3,0,0.2003,0.2059,0.2139,0.2216,0.2278,0.2376,0.246,0.2415,0.2416,0.2587,0.27,0.2586,0.2596,0.2737,0.2577,0.2567,0.254,0.2481,0.244,0.2504,0.2561,0.2353,0.1931,0.1928,0.1925,0.1922,0,0,0.2002,0.2022,0.2046,0.2133,0.2224,0.226,0.2257,0.2105,0.2125,0.2063,0.2132,0.2424,0.2626,0.2238,0.2187,0.2039,0.2245,0.1949,0.281,0.2823,0.2875,0.3042,0.2793,0,0,0,0,0]},{"header":{"parameterUnit":"m.s-1","parameterCategory":2,"la1":30.2991,"la2":30.254,"lo1":-89.0895,"lo2":-89.0444,"dy":0.0017,"dx":0.0017,"nx":28,"ny":28,"refTime":"2023-08-16T21:00:00:Z","depth":"2","parameterNumber":3,"parameterNumberName":"V-component_of_CURRENTS"},"data":[0,0,0,0,0,0,0,0,0,0,0,0,0,0,0,0,0,0,0,0,0,0,0,0,0,0,0,0,0,0,0,0,0,0,0,0,0,0,0,0,0,0,0,0,0,0,0,0,0,0,0,0,0,0,0,0,0,0,0.0073,0.0072,0,0.0008,0.0007,0.0006,-0.0042,-0.0043,-0.0043,-0.0043,-0.0111,-0.0112,-0.0114,0,0,0,0,0,0,0,0,0,0,0,0,0,0.0126,0.0125,0.0073,0.0072,0.0072,0.0008,0.0007,0.0006,-0.0042,-0.0043,-0.0043,-0.0043,-0.011,-0.0112,-0.0114,0,0,0,0,0,0,0,0,0,0,0,0,0,0.0085,0.0125,0.0073,0.0041,0.0037,0.0008,0.0007,0.0006,-0.0042,-0.0043,-0.0043,-0.0044,-0.011,-0.0112,-0.0114,-0.0118,0,0,-0.0121,-0.0122,0,0,0,0,0,0,0,0,0.0088,0.0083,0.0046,0.0043,0.0039,-0.0009,0.0001,-0.0036,-0.0042,-0.0013,-0.0043,-0.0044,-0.0076,-0.0081,-0.0093,-0.0121,-0.0124,-0.0121,-0.0122,-0.0123,-0.0124,0,0,0,0,0,0,0,0.0091,0.0086,0.0046,0.0046,0.0041,0.0019,0.0013,-0.0007,-0.0042,-0.0015,-0.0019,-0.0025,-0.0078,-0.0091,-0.0095,-0.0125,-0.0121,-0.0123,-0.0124,-0.0125,-0.0177,-0.0177,0,0,0,0,0,0,0.0103,0.0089,0.0048,0.0044,0.0064,0.0019,0.0012,0.0006,-0.0041,-0.0049,-0.0024,-0.0027,-0.0087,-0.0093,-0.0098,-0.0094,-0.0123,-0.0126,-0.0127,-0.0177,-0.0177,-0.0177,0,0,0,0,0,0,0.0104,0.01,0.0051,0.0066,0.0058,0.0019,0.0013,0.0005,-0.0005,-0.0048,-0.0056,-0.0026,-0.0088,-0.0095,-0.0112,-0.0098,-0.0127,-0.0129,-0.0177,-0.0177,-0.0177,-0.0094,0,0,0,0,0,0,0.0106,0.0101,0.0103,0.0067,0.0058,0.0043,0.0013,0.0004,-0.0008,-0.0011,-0.0052,-0.0059,-0.0089,-0.0108,-0.0114,-0.0101,-0.013,-0.0177,-0.0177,-0.0177,-0.0096,-0.0091,-0.0086,0,0,0,0,0,0.0108,0.0111,0.0103,0.0098,0.0061,0.0044,0.0038,0.0007,-0.0007,-0.0005,-0.0036,-0.0058,-0.0113,-0.0109,-0.0116,-0.0104,-0.0177,-0.0177,-0.0177,-0.0099,-0.0092,-0.0086,0,0,0,0,0,0,0.0127,0.0105,0.0096,0.009,0.0075,0.0037,0.0032,0.0015,-0.0008,-0.0012,-0.0053,-0.0062,-0.0071,-0.0103,-0.0098,-0.0123,-0.0151,-0.0152,-0.0089,-0.0083,-0.0078,-0.0057,-0.0132,0,0,0,0,0,0.0136,0.0135,0.0111,0.0107,0.0102,0.0071,0.0061,0.0044,0.0017,0.0006,-0.0022,-0.0055,-0.0077,-0.0091,-0.0116,-0.0126,-0.0142,-0.0127,-0.0122,-0.0117,-0.0107,-0.0112,-0.0105,-0.0178,-0.0178,-0.0178,0,0,0.0137,0.0129,0.0125,0.0112,0.0095,0.0098,0.0063,0.0054,0.0054,0.0004,-0.0005,-0.0032,-0.0075,-0.0086,-0.0094,-0.0111,-0.0107,-0.0117,-0.0112,-0.0105,-0.0111,-0.0103,-0.0097,-0.0178,-0.0178,-0.0178,0,0,0.0153,0.014,0.0151,0.0145,0.0134,0.0119,0.0122,0.0094,0.008,0.0072,0.0035,0.002,-0.002,-0.0044,-0.0062,-0.0045,-0.0075,-0.0061,-0.002,-0.0024,-0.0017,-0.0012,-0.0024,-0.002,-0.0063,-0.0063,-0.0063,0,0.0157,0.0171,0.015,0.0164,0.0165,0.0134,0.015,0.0132,0.0102,0.0099,0.008,0.0037,0.0003,-0.0007,-0.0006,-0.0029,-0.0042,-0.0034,-0.0014,-0.0009,-0.0004,-0.0018,-0.0015,-0.0059,-0.006,-0.006,-0.006,0,0.0183,0.0198,0.0204,0.0215,0.0213,0.0221,0.0201,0.0197,0.018,0.0162,0.0154,0.0111,0.0085,0.0069,0.0037,0.0046,0.0024,0.0001,-0.0021,0.0009,-0.0009,-0.0007,-0.0053,-0.0055,-0.0056,-0.0057,0,0,0.0192,0.0218,0.0223,0.025,0.0245,0.0252,0.0253,0.0252,0.0276,0.0233,0.025,0.0203,0.0181,0.0157,0.0116,0.0107,0.0124,0.007,0.0068,0.0074,0.0112,0.0048,0.0044,0.0108,0.0109,0.011,0.0088,0,0.0224,0.0269,0.0269,0.0317,0.0342,0.0325,0.034,0.0334,0.0326,0.0334,0.0278,0.0278,0.0211,0.0212,0.019,0.0144,0.0133,0.0132,0.0068,0.0066,0.002,0.0045,0.0058,0.0035,0.0089,0.009,0.009,0,0.0259,0.029,0.0338,0.0394,0.0404,0.0423,0.046,0.047,0.0461,0.0455,0.0429,0.0388,0.035,0.0302,0.0234,0.0236,0.0183,0.0144,0.0142,0.0057,0.0006,0.0011,0.0036,0.0093,0.0093,0.0092,0.0092,0,0.0298,0.0347,0.0392,0.0406,0.0451,0.0472,0.0493,0.0505,0.0548,0.0529,0.0569,0.049,0.049,0.0395,0.0289,0.0269,0.0224,0.0185,0.0077,0.0072,0.0056,0.0047,0.0154,0.0154,0.0154,0.0154,0.0154,0,0.0344,0.0392,0.0416,0.045,0.053,0.0524,0.0612,0.0621,0.0656,0.0753,0.0637,0.071,0.0522,0.0465,0.0334,0.0209,0.0253,0.0093,0.0066,0.0082,0.0076,0.0101,0.0096,0.0153,0.0153,0.0154,0.0154,0,0.0399,0.0407,0.0481,0.0531,0.0558,0.0612,0.0709,0.078,0.0792,0.0915,0.0917,0.0879,0.0799,0.0596,0.0459,0.0298,0.0162,0.011,0.0128,0.0102,-0.0,-0.0002,-0.0017,-0.0019,-0.0021,-0.0023,-0.0024,0,0.0426,0.0465,0.0553,0.0603,0.0634,0.0716,0.0795,0.0842,0.0945,0.1062,0.1148,0.1084,0.1079,0.079,0.0476,0.019,0.018,0.0024,-0.0023,0.0009,-0.0016,-0.0014,-0.0013,-0.0006,-0.0008,-0.0009,-0.0009,0,0.0488,0.052,0.0588,0.0703,0.0788,0.0896,0.1017,0.1143,0.1245,0.1351,0.1503,0.1491,0.1194,0.0893,0.0447,0.0259,0.0047,-0.0006,0.0053,0.002,0.0013,-0.001,-0.0007,-0.0017,-0.0017,-0.0016,-0.0016,-0.0015,0.0542,0.0596,0.0685,0.0815,0.0906,0.1068,0.1222,0.1377,0.1575,0.1751,0.1743,0.1708,0.133,0.0739,0.0397,0.0006,0.0016,-0.0116,-0.011,-0.0103,-0.0112,-0.0124,-0.0182,-0.0182,-0.0182,-0.0183,-0.0183,0,0.0609,0.0678,0.0784,0.0932,0.107,0.1099,0.1364,0.153,0.1809,0.189,0.1957,0.1588,0.1237,0.082,0.0231,-0.0119,-0.0132,-0.0212,-0.0145,-0.0136,-0.0128,-0.0136,-0.0214,-0.0214,-0.0215,-0.0215,0,0,0.0635,0.076,0.0827,0.1054,0.1155,0.1365,0.1544,0.178,0.1917,0.1991,0.1933,0.1803,0.1324,0.09,0.043,0.012,0.0078,0.0054,0.0107,0.0249,0.0262,-0.0056,-0.0058,0,0,0,0,0]}],[{"header":{"parameterUnit":"m.s-1","parameterCategory":2,"la1":30.2991,"la2":30.254,"lo1":-89.0895,"lo2":-89.0444,"dy":0.0017,"dx":0.0017,"nx":28,"ny":28,"refTime":"2023-08-16T21:00:00:Z","depth":"4","parameterNumber":2,"parameterNumberName":"U-component_of_CURRENTS"},"data":[0,0,0,0,0,0,0,0,0,0,0,0,0,0,0,0,0,0,0,0,0,0,0,0,0,0,0,0,0,0,0,0,0,0,0,0,0,0,0,0,0,0,0,0,0,0,0,0,0,0,0,0,0,0,0,0,0,0,0.1584,0.1585,0,0.167,0.1671,0.1672,0.1732,0.1733,0.1734,0.1735,0.1727,0.1726,0.1725,0,0,0,0,0,0,0,0,0,0,0,0,0,0.1464,0.1465,0.1584,0.1585,0.1587,0.167,0.1671,0.1672,0.1732,0.1733,0.1734,0.1735,0.1727,0.1726,0.1724,0,0,0,0,0,0,0,0,0,0,0,0,0,0.1525,0.1466,0.1583,0.163,0.1635,0.167,0.1671,0.1672,0.1732,0.1733,0.1735,0.1736,0.1727,0.1726,0.1724,0.1689,0,0,0.172,0.1719,0,0,0,0,0,0,0,0,0.1522,0.1529,0.1622,0.1627,0.1633,0.1696,0.1626,0.1674,0.1732,0.1691,0.1735,0.1737,0.1709,0.1709,0.1718,0.1688,0.1688,0.1719,0.1718,0.1718,0.1717,0,0,0,0,0,0,0,0.1517,0.1526,0.1614,0.1623,0.163,0.1645,0.1654,0.1636,0.1686,0.1694,0.17,0.1716,0.1711,0.1719,0.1718,0.1688,0.1719,0.1718,0.1717,0.1716,0.1699,0.17,0,0,0,0,0,0,0.1515,0.1522,0.1611,0.1617,0.1584,0.1646,0.1657,0.1671,0.1689,0.1695,0.1715,0.1719,0.1721,0.172,0.1718,0.1778,0.1718,0.1716,0.1715,0.1699,0.17,0.17,0,0,0,0,0,0,0.1512,0.1522,0.1608,0.1575,0.1587,0.1647,0.1662,0.1672,0.1718,0.1707,0.171,0.1757,0.1722,0.172,0.1742,0.1774,0.1716,0.1714,0.1698,0.1699,0.17,0.1831,0,0,0,0,0,0,0.1508,0.152,0.1541,0.1574,0.1589,0.1645,0.1662,0.1673,0.1726,0.1733,0.1742,0.1741,0.1723,0.1745,0.174,0.177,0.1713,0.1698,0.1699,0.17,0.1826,0.1836,0.1845,0,0,0,0,0,0.1503,0.1516,0.1541,0.1553,0.1612,0.1646,0.1655,0.1699,0.1727,0.1746,0.1766,0.1743,0.1746,0.1745,0.1739,0.177,0.1697,0.1698,0.1699,0.1822,0.1834,0.1845,0,0,0,0,0,0,0.1468,0.1525,0.1553,0.1582,0.1624,0.1659,0.1685,0.1718,0.1751,0.1766,0.1758,0.1757,0.1792,0.1751,0.1749,0.1762,0.1713,0.1713,0.1808,0.1819,0.1828,0.1833,0.1712,0,0,0,0,0,0.1472,0.1499,0.1553,0.1577,0.1604,0.1653,0.168,0.1713,0.1742,0.1761,0.1774,0.1775,0.1783,0.1782,0.1777,0.178,0.1774,0.1789,0.1798,0.1807,0.1804,0.1844,0.1859,0.1704,0.1704,0.1704,0,0,0.1468,0.1499,0.1519,0.1572,0.161,0.1648,0.1673,0.1721,0.1748,0.1749,0.1795,0.1818,0.1795,0.1818,0.1825,0.1792,0.185,0.1808,0.1817,0.1809,0.1847,0.1863,0.1877,0.1704,0.1704,0.1704,0,0,0.1462,0.1501,0.1531,0.1564,0.1629,0.1659,0.1683,0.1744,0.1771,0.1815,0.1834,0.1882,0.1874,0.1884,0.188,0.1927,0.191,0.1919,0.1962,0.2003,0.2017,0.2029,0.2062,0.2076,0.191,0.1911,0.1911,0,0.1467,0.1492,0.1542,0.1575,0.1599,0.1669,0.1699,0.1735,0.1796,0.1815,0.1839,0.1903,0.1904,0.1938,0.1971,0.1952,0.1971,0.1933,0.202,0.2032,0.2042,0.2073,0.2087,0.1917,0.1916,0.1916,0.1915,0,0.1476,0.1507,0.1523,0.1587,0.1624,0.1653,0.1713,0.1754,0.1807,0.1851,0.1922,0.196,0.1995,0.2011,0.2013,0.2083,0.2074,0.2046,0.2004,0.2067,0.2094,0.2106,0.1926,0.1924,0.1922,0.192,0,0,0.1454,0.1521,0.1529,0.1539,0.1626,0.1641,0.1698,0.1754,0.1791,0.188,0.1934,0.2006,0.2068,0.2067,0.2095,0.2141,0.2257,0.2137,0.2136,0.2191,0.2359,0.2183,0.2179,0.2263,0.2265,0.2267,0.2357,0,0.1449,0.1481,0.1528,0.1554,0.1569,0.1634,0.1675,0.1739,0.1807,0.1878,0.1959,0.2032,0.2073,0.2124,0.2186,0.224,0.2292,0.2235,0.2269,0.2269,0.2123,0.2187,0.2274,0.2366,0.2369,0.2371,0.2372,0,0.1431,0.1451,0.1475,0.1508,0.1526,0.1566,0.1625,0.1678,0.1796,0.1857,0.1971,0.2045,0.2165,0.2179,0.2322,0.2293,0.2339,0.2375,0.2378,0.217,0.2114,0.228,0.2394,0.2392,0.239,0.2389,0.2388,0,0.1334,0.1396,0.1399,0.1414,0.1489,0.1511,0.1573,0.168,0.173,0.1873,0.1938,0.208,0.2181,0.2264,0.2368,0.2361,0.25,0.2482,0.2364,0.2353,0.243,0.2415,0.2566,0.2566,0.2566,0.2566,0.2566,0,0.1262,0.1256,0.1359,0.1347,0.1369,0.1458,0.1511,0.1585,0.1725,0.1808,0.1944,0.2029,0.2217,0.2317,0.2381,0.2409,0.2513,0.238,0.2363,0.2482,0.2473,0.244,0.2424,0.2569,0.2568,0.2568,0.2567,0,0.1121,0.119,0.1188,0.1278,0.1316,0.1335,0.1478,0.1527,0.1669,0.1785,0.1842,0.2037,0.2171,0.2295,0.2445,0.2412,0.245,0.2427,0.2556,0.2544,0.2278,0.2268,0.2306,0.23,0.2296,0.2292,0.2288,0,0.104,0.1033,0.1123,0.115,0.1194,0.1266,0.1332,0.1488,0.1564,0.1773,0.1822,0.1999,0.2115,0.2187,0.2318,0.239,0.2374,0.237,0.2319,0.2271,0.2252,0.2249,0.2245,0.2281,0.228,0.2279,0.2277,0,0.0887,0.0937,0.095,0.1021,0.1085,0.1139,0.1257,0.13,0.1501,0.1639,0.1777,0.1861,0.1998,0.2118,0.218,0.2228,0.2355,0.2321,0.2331,0.2284,0.2242,0.2227,0.2228,0.2261,0.2264,0.2265,0.2266,0,0.0789,0.0771,0.083,0.0879,0.095,0.0999,0.1077,0.1205,0.1303,0.1567,0.1618,0.1806,0.1998,0.2032,0.2088,0.2114,0.2098,0.2041,0.2066,0.2085,0.1966,0.1877,0.1776,0,0,0,0,0,0.0699,0.0681,0.07,0.0745,0.0814,0.0867,0.1021,0.1122,0.1332,0.1396,0.1511,0.1634,0.1748,0.1843,0.183,0.1959,0.2074,0.193,0.2012,0.2172,0.2191,0.2069,0,0,0,0,0,0,0.0641,0.0641,0.0647,0.0629,0.065,0.0717,0.0812,0.0964,0.1025,0.1256,0.1338,0.151,0.1647,0.1735,0.1788,0.1814,0.1829,0.2056,0.2051,0.2161,0.2178,0.2193,0.2075,0,0,0,0,0]},{"header":{"parameterUnit":"m.s-1","parameterCategory":2,"la1":30.2991,"la2":30.254,"lo1":-89.0895,"lo2":-89.0444,"dy":0.0017,"dx":0.0017,"nx":28,"ny":28,"refTime":"2023-08-16T21:00:00:Z","depth":"4","parameterNumber":3,"parameterNumberName":"V-component_of_CURRENTS"},"data":[0,0,0,0,0,0,0,0,0,0,0,0,0,0,0,0,0,0,0,0,0,0,0,0,0,0,0,0,0,0,0,0,0,0,0,0,0,0,0,0,0,0,0,0,0,0,0,0,0,0,0,0,0,0,0,0,0,0,0.006,0.006,0,0.0018,0.0018,0.0017,-0.0012,-0.0013,-0.0013,-0.0013,-0.0041,-0.0041,-0.0042,0,0,0,0,0,0,0,0,0,0,0,0,0,0.0088,0.0088,0.006,0.006,0.006,0.0018,0.0018,0.0017,-0.0012,-0.0013,-0.0013,-0.0013,-0.0041,-0.0041,-0.0042,0,0,0,0,0,0,0,0,0,0,0,0,0,0.0064,0.0088,0.0061,0.004,0.0038,0.0019,0.0018,0.0017,-0.0012,-0.0013,-0.0013,-0.0013,-0.004,-0.0041,-0.0042,-0.0042,0,0,-0.0045,-0.0045,0,0,0,0,0,0,0,0,0.0065,0.0062,0.0044,0.0042,0.0039,0.0009,0.0017,-0.0002,-0.0012,0.0006,-0.0013,-0.0013,-0.0022,-0.0025,-0.0033,-0.0044,-0.0045,-0.0045,-0.0045,-0.0046,-0.0046,0,0,0,0,0,0,0,0.0067,0.0064,0.0043,0.0043,0.0041,0.0024,0.0021,0.0013,-0.0006,0.0005,0.0002,-0.0001,-0.0024,-0.0032,-0.0034,-0.0045,-0.0045,-0.0046,-0.0046,-0.0046,-0.0056,-0.0055,0,0,0,0,0,0,0.0075,0.0066,0.0044,0.0042,0.0052,0.0024,0.002,0.0018,-0.0007,-0.0011,-0.0001,-0.0002,-0.0031,-0.0033,-0.0035,-0.0031,-0.0046,-0.0047,-0.0047,-0.0056,-0.0056,-0.0055,0,0,0,0,0,0,0.0076,0.0074,0.0046,0.0053,0.0049,0.0024,0.0022,0.0017,0.0011,-0.0011,-0.0015,-0.0002,-0.0031,-0.0034,-0.004,-0.0032,-0.0047,-0.0048,-0.0056,-0.0056,-0.0056,-0.0025,0,0,0,0,0,0,0.0077,0.0074,0.0076,0.0054,0.0049,0.004,0.0022,0.0017,0.0009,0.0007,-0.0013,-0.0016,-0.0031,-0.0038,-0.0041,-0.0034,-0.0048,-0.0057,-0.0056,-0.0056,-0.0027,-0.0024,-0.0022,0,0,0,0,0,0.0078,0.0078,0.0076,0.0074,0.0052,0.0041,0.0037,0.0017,0.001,0.001,-0.0005,-0.0015,-0.0037,-0.0039,-0.0042,-0.0035,-0.0057,-0.0056,-0.0056,-0.0028,-0.0025,-0.0022,0,0,0,0,0,0,0.0083,0.0075,0.0072,0.0068,0.006,0.0036,0.0032,0.0023,0.001,0.0009,-0.0012,-0.0016,-0.0021,-0.003,-0.0032,-0.0036,-0.0048,-0.0048,-0.0026,-0.0023,-0.0021,-0.0011,-0.0049,0,0,0,0,0,0.0089,0.009,0.0079,0.0076,0.0074,0.0056,0.0049,0.004,0.0026,0.0019,0.0005,-0.0009,-0.0021,-0.0023,-0.0037,-0.0035,-0.0059,-0.0032,-0.0029,-0.0027,-0.0021,-0.0055,-0.0055,-0.0053,-0.0053,-0.0053,0,0,0.0087,0.0085,0.0083,0.0078,0.0069,0.0074,0.0051,0.0046,0.0049,0.002,0.0018,-0.0002,-0.002,-0.0024,-0.0025,-0.0029,-0.0042,-0.0026,-0.0024,-0.0019,-0.0054,-0.0055,-0.0055,-0.0053,-0.0053,-0.0053,0,0,0.0094,0.0087,0.0097,0.0096,0.0093,0.0085,0.0088,0.0073,0.0064,0.0063,0.0038,0.0025,0.0014,-0.0003,-0.0011,0.0,-0.0031,-0.0003,0.0022,-0.0011,-0.0011,-0.0012,-0.0051,-0.0055,0.0002,0.0002,0.0003,0,0.0094,0.0112,0.0097,0.011,0.0118,0.0095,0.0115,0.0099,0.0083,0.0085,0.007,0.0045,0.0025,0.0019,0.0016,0.0007,-0.0021,0.0012,-0.0008,-0.0009,-0.001,-0.005,-0.0055,0.0004,0.0004,0.0004,0.0004,0,0.0115,0.0132,0.0137,0.0154,0.0154,0.0167,0.0153,0.0154,0.0145,0.0131,0.0123,0.0087,0.0078,0.0062,0.0041,0.0026,0.0005,-0.0005,-0.0016,-0.0009,-0.0051,-0.0057,0.0006,0.0006,0.0005,0.0005,0,0,0.0124,0.015,0.0156,0.0187,0.0187,0.0199,0.0201,0.0209,0.0229,0.019,0.0207,0.0161,0.0138,0.0126,0.0093,0.0057,0.0013,0.0024,0.0021,-0.0015,-0.0069,-0.0083,-0.0092,-0.0004,-0.0005,-0.0006,-0.0098,0,0.0157,0.0204,0.0203,0.0255,0.0286,0.0275,0.0289,0.0286,0.0277,0.0282,0.0227,0.0227,0.0162,0.0166,0.0114,0.0041,0.0,0.0039,-0.007,-0.0073,-0.0087,-0.0098,-0.0008,-0.0102,-0.0104,-0.0105,-0.0106,0,0.0196,0.0228,0.0287,0.0341,0.0353,0.0374,0.0415,0.0428,0.0411,0.0404,0.0372,0.0325,0.0262,0.0217,0.0078,0.0103,0.0022,-0.0042,-0.0047,-0.0073,-0.0098,-0.0109,-0.0117,-0.0116,-0.0115,-0.0114,-0.0114,0,0.0246,0.0296,0.0355,0.037,0.0414,0.0442,0.0466,0.0469,0.0502,0.0486,0.0496,0.0405,0.0376,0.0249,0.009,0.0088,-0.0066,-0.0078,-0.0169,-0.0172,-0.0144,-0.0143,-0.0165,-0.0165,-0.0164,-0.0164,-0.0164,0,0.0299,0.035,0.0388,0.0426,0.0509,0.051,0.0592,0.06,0.0618,0.0656,0.0567,0.0555,0.0382,0.0264,0.0115,-0.0058,-0.0051,-0.0169,-0.0196,-0.0131,-0.0126,-0.015,-0.0147,-0.0168,-0.0167,-0.0166,-0.0166,0,0.0351,0.0376,0.0455,0.0512,0.0542,0.0603,0.0685,0.0739,0.0738,0.0782,0.0779,0.0669,0.0502,0.0312,0.0109,-0.0008,-0.0174,-0.0231,-0.0154,-0.0175,-0.0264,-0.0258,-0.0335,-0.0336,-0.0337,-0.0338,-0.0339,0,0.0376,0.0426,0.0524,0.0581,0.0614,0.0704,0.0773,0.0808,0.0856,0.0838,0.0854,0.0715,0.061,0.0309,0.0101,-0.0179,-0.0215,-0.0287,-0.0275,-0.0263,-0.0281,-0.0274,-0.0267,-0.0341,-0.0341,-0.0341,-0.0341,0,0.0431,0.0473,0.0539,0.0654,0.074,0.0839,0.0922,0.0962,0.0992,0.0992,0.0918,0.0751,0.0564,0.0311,0.0096,-0.0107,-0.0235,-0.0298,-0.0297,-0.0287,-0.027,-0.0286,-0.0278,-0.0345,-0.0345,-0.0344,-0.0344,0,0.0472,0.0528,0.0618,0.0719,0.083,0.0919,0.0967,0.1004,0.1049,0.1014,0.0983,0.0766,0.0651,0.0347,0.0138,-0.0059,-0.0105,-0.0146,-0.0154,-0.0152,-0.0079,-0.0029,-0.0053,0,0,0,0,0,0.0499,0.0567,0.0668,0.0781,0.0888,0.0947,0.1042,0.1074,0.1094,0.106,0.1024,0.0841,0.0526,0.0384,0.0184,0.0105,-0.0148,-0.0135,-0.02,-0.0366,-0.0361,-0.0309,0,0,0,0,0,0,0.0523,0.0621,0.0671,0.0805,0.0882,0.1004,0.106,0.1077,0.1055,0.1037,0.0869,0.0801,0.0488,0.0634,0.0179,0.0118,0.0054,-0.028,-0.0284,-0.0368,-0.0364,-0.0361,-0.0305,0,0,0,0,0]}]]